Location: Igon
(43.1667°N, 0.2333°W)
Time: 10:09:49
(UTC+00:00)

Cosmos 2074 Rocket - Pass Details

Date: 29 November 2020
Orbit: 968 x 985 km, 82.9° (Epoch: 23 January)

Event Time Altitude Azimuth Distance (km) Brightness Sun altitude
Rises 05:26:55 0° 189° (S) 3,647 7.0 -18.5°
Reaches altitude 10° 05:29:25 10° 191° (S) 2,703 6.3 -18.1°
Maximum altitude 05:35:37 80° 278° (W) 988 3.9 -17.0°
Drops below altitude 10° 05:41:51 10° 6° (N) 2,720 6.2 -15.9°
Sets 05:44:22 0° 7° (N) 3,672 6.9 -15.4°
